When you browse on this site, cookies collect data to enhance your experience and personalize the content and advertising you see.
Visit our Privacy Policy to learn more. By continuing to use the site, you agree to this use of cookies and data.
  • In Österreich
  • Länderverzeichnis
  • Für 7 Tage
  • Wassertemperatur
  • Wetterkarte
  • News
  • Widgets
  • user-avatar
    Anmelden

    Stündliche Wetter Canberra

    Heute, 26 Februar, Mittwoch

    Zeit Temperatur Niederschläge Wind Luftdruck Luftfeuchtigkeit
    00:00 +21°C° 0 mm 1 m/S 705 mmHg 62%
    01:00 +21°C° 0 mm 1 m/S 705 mmHg 64%
    02:00 +21°C° 0 mm 1 m/S 704 mmHg 67%
    03:00 +20°C° 0 mm 1 m/S 704 mmHg 70%
    04:00 +19°C° 0 mm 3 m/S 703 mmHg 68%
    05:00 +20°C° 0.1 mm 3 m/S 703 mmHg 70%
    06:00 +20°C° 0.1 mm 3 m/S 703 mmHg 71%
    07:00 +21°C° 0.1 mm 4 m/S 704 mmHg 72%
    08:00 +22°C° 0.3 mm 5 m/S 703 mmHg 68%
    09:00 +24°C° 0.3 mm 7 m/S 703 mmHg 63%
    10:00 +26°C° 0 mm 7 m/S 703 mmHg 60%
    11:00 +27°C° 0.1 mm 8 m/S 703 mmHg 50%
    12:00 +29°C° 0.1 mm 8 m/S 702 mmHg 41%
    13:00 +31°C° 0.1 mm 9 m/S 702 mmHg 32%
    14:00 +29°C° 0 mm 8 m/S 702 mmHg 28%
    15:00 +29°C° 0 mm 7 m/S 702 mmHg 23%
    16:00 +28°C° 0 mm 5 m/S 702 mmHg 20%
    17:00 +26°C° 0 mm 4 m/S 703 mmHg 29%
    18:00 +22°C° 0 mm 3 m/S 704 mmHg 37%
    19:00 +20°C° 0 mm 3 m/S 704 mmHg 46%
    20:00 +18°C° 0 mm 3 m/S 705 mmHg 57%
    21:00 +16°C° 0 mm 3 m/S 705 mmHg 67%
    22:00 +14°C° 0 mm 3 m/S 705 mmHg 78%
    23:00 +15°C° 0 mm 2 m/S 706 mmHg 80%

    Morgen, 27 Februar, Donnerstag

    Zeit Temperatur Niederschläge Wind Luftdruck Luftfeuchtigkeit
    00:00 +14°C° 0 mm 2 m/S 706 mmHg 82%
    01:00 +14°C° 0 mm 2 m/S 706 mmHg 84%
    02:00 +14°C° 0 mm 2 m/S 706 mmHg 84%
    03:00 +13°C° 0 mm 2 m/S 705 mmHg 85%
    04:00 +13°C° 0 mm 2 m/S 705 mmHg 86%
    05:00 +13°C° 0 mm 2 m/S 705 mmHg 85%
    06:00 +13°C° 0 mm 2 m/S 706 mmHg 84%
    07:00 +13°C° 0 mm 2 m/S 706 mmHg 83%
    08:00 +16°C° 0 mm 2 m/S 706 mmHg 68%
    09:00 +18°C° 0 mm 3 m/S 706 mmHg 54%
    10:00 +20°C° 0 mm 3 m/S 706 mmHg 40%
    11:00 +22°C° 0 mm 4 m/S 706 mmHg 34%
    12:00 +23°C° 0 mm 4 m/S 705 mmHg 27%
    13:00 +26°C° 0 mm 4 m/S 705 mmHg 21%
    14:00 +26°C° 0 mm 5 m/S 704 mmHg 20%
    15:00 +26°C° 0 mm 5 m/S 704 mmHg 19%
    16:00 +26°C° 0 mm 5 m/S 703 mmHg 17%
    17:00 +23°C° 0 mm 4 m/S 703 mmHg 20%
    18:00 +20°C° 0 mm 4 m/S 704 mmHg 22%
    19:00 +18°C° 0 mm 3 m/S 704 mmHg 24%
    20:00 +17°C° 0 mm 3 m/S 704 mmHg 28%
    21:00 +15°C° 0 mm 2 m/S 704 mmHg 31%
    22:00 +14°C° 0 mm 2 m/S 705 mmHg 35%
    23:00 +13°C° 0 mm 1 m/S 704 mmHg 38%

    übermorgen, 28 Februar, Freitag

    Zeit Temperatur Niederschläge Wind Luftdruck Luftfeuchtigkeit
    00:00 +12°C° 0 mm 1 m/S 704 mmHg 40%
    01:00 +12°C° 0 mm 1 m/S 704 mmHg 43%
    02:00 +11°C° 0 mm 1 m/S 704 mmHg 44%
    03:00 +11°C° 0 mm 1 m/S 704 mmHg 45%
    04:00 +10°C° 0 mm 1 m/S 704 mmHg 47%
    05:00 +11°C° 0 mm 1 m/S 704 mmHg 46%
    06:00 +11°C° 0 mm 0 m/S 705 mmHg 46%
    07:00 +12°C° 0 mm 0 m/S 706 mmHg 46%
    08:00 +15°C° 0 mm 0 m/S 706 mmHg 40%
    09:00 +20°C° 0 mm 1 m/S 707 mmHg 35%
    10:00 +24°C° 0 mm 1 m/S 707 mmHg 30%
    11:00 +25°C° 0 mm 1 m/S 707 mmHg 28%
    12:00 +27°C° 0 mm 1 m/S 707 mmHg 26%
    13:00 +29°C° 0 mm 1 m/S 707 mmHg 24%
    14:00 +28°C° 0 mm 1 m/S 707 mmHg 26%
    15:00 +28°C° 0 mm 2 m/S 707 mmHg 27%
    16:00 +28°C° 0 mm 2 m/S 707 mmHg 28%
    17:00 +24°C° 0 mm 3 m/S 707 mmHg 44%
    18:00 +20°C° 0 mm 3 m/S 708 mmHg 59%
    19:00 +15°C° 0 mm 4 m/S 708 mmHg 75%
    20:00 +15°C° 0 mm 4 m/S 709 mmHg 77%
    21:00 +16°C° 0 mm 3 m/S 709 mmHg 78%
    22:00 +14°C° 0 mm 3 m/S 710 mmHg 80%
    23:00 +14°C° 0 mm 3 m/S 710 mmHg 80%

    29 Februar, Samstag

    Zeit Temperatur Niederschläge Wind Luftdruck Luftfeuchtigkeit
    00:00 +14°C° 0 mm 3 m/S 710 mmHg 81%
    01:00 +15°C° 0 mm 2 m/S 710 mmHg 81%
    02:00 +14°C° 0 mm 2 m/S 710 mmHg 85%
    03:00 +13°C° 0 mm 2 m/S 710 mmHg 89%
    04:00 +13°C° 0 mm 1 m/S 709 mmHg 93%
    05:00 +13°C° 0 mm 1 m/S 710 mmHg 90%
    06:00 +14°C° 0 mm 1 m/S 710 mmHg 87%
    07:00 +14°C° 0 mm 1 m/S 710 mmHg 85%
    08:00 +18°C° 0 mm 1 m/S 711 mmHg 75%
    09:00 +20°C° 0 mm 1 m/S 711 mmHg 65%
    10:00 +22°C° 0 mm 1 m/S 711 mmHg 55%
    11:00 +24°C° 0 mm 1 m/S 711 mmHg 48%
    12:00 +26°C° 0 mm 1 m/S 710 mmHg 41%
    13:00 +28°C° 0 mm 2 m/S 710 mmHg 33%
    14:00 +29°C° 0 mm 2 m/S 710 mmHg 32%
    15:00 +29°C° 0 mm 2 m/S 709 mmHg 31%
    16:00 +29°C° 0 mm 2 m/S 709 mmHg 29%
    17:00 +27°C° 0 mm 2 m/S 709 mmHg 38%
    18:00 +24°C° 0 mm 2 m/S 709 mmHg 47%
    19:00 +21°C° 0 mm 2 m/S 709 mmHg 56%
    20:00 +19°C° 0 mm 2 m/S 709 mmHg 67%
    21:00 +18°C° 0 mm 2 m/S 709 mmHg 78%
    22:00 +16°C° 0 mm 2 m/S 709 mmHg 88%
    23:00 +16°C° 0 mm 2 m/S 709 mmHg 90%

    1 März, Sonntag

    Zeit Temperatur Niederschläge Wind Luftdruck Luftfeuchtigkeit
    00:00 +16°C° 0 mm 1 m/S 709 mmHg 92%
    01:00 +15°C° 0 mm 1 m/S 709 mmHg 94%
    02:00 +15°C° 0 mm 1 m/S 709 mmHg 94%
    03:00 +15°C° 0 mm 1 m/S 708 mmHg 94%
    04:00 +15°C° 0 mm 1 m/S 708 mmHg 93%
    05:00 +16°C° 0 mm 1 m/S 708 mmHg 91%
    06:00 +15°C° 0 mm 0 m/S 709 mmHg 89%
    07:00 +16°C° 0 mm 0 m/S 709 mmHg 87%
    08:00 +21°C° 0 mm 1 m/S 709 mmHg 75%
    09:00 +24°C° 0 mm 1 m/S 709 mmHg 62%
    10:00 +27°C° 0 mm 2 m/S 709 mmHg 50%
    11:00 +28°C° 0 mm 2 m/S 709 mmHg 44%
    12:00 +29°C° 0 mm 3 m/S 708 mmHg 38%
    13:00 +32°C° 0 mm 4 m/S 708 mmHg 32%
    14:00 +30°C° 0 mm 4 m/S 707 mmHg 33%
    15:00 +30°C° 0 mm 4 m/S 707 mmHg 34%
    16:00 +30°C° 0 mm 4 m/S 706 mmHg 34%
    17:00 +28°C° 0 mm 3 m/S 706 mmHg 39%
    18:00 +26°C° 0 mm 2 m/S 706 mmHg 44%
    19:00 +24°C° 0 mm 1 m/S 706 mmHg 48%
    20:00 +24°C° 0 mm 1 m/S 706 mmHg 51%
    21:00 +23°C° 0 mm 1 m/S 706 mmHg 54%
    22:00 +20°C° 0 mm 0 m/S 706 mmHg 56%
    23:00 +20°C° 0 mm 0 m/S 706 mmHg 59%

    2 März, Montag

    Zeit Temperatur Niederschläge Wind Luftdruck Luftfeuchtigkeit
    00:00 +19°C° 0 mm 0 m/S 706 mmHg 61%
    01:00 +18°C° 0 mm 0 m/S 706 mmHg 63%
    02:00 +18°C° 0 mm 0 m/S 706 mmHg 65%
    03:00 +20°C° 0 mm 1 m/S 706 mmHg 66%
    04:00 +19°C° 0 mm 1 m/S 706 mmHg 68%
    05:00 +19°C° 0 mm 1 m/S 707 mmHg 69%
    06:00 +18°C° 0 mm 2 m/S 707 mmHg 70%
    07:00 +19°C° 0 mm 2 m/S 707 mmHg 71%
    08:00 +21°C° 0 mm 2 m/S 708 mmHg 65%
    09:00 +24°C° 0 mm 2 m/S 708 mmHg 60%
    10:00 +26°C° 0 mm 2 m/S 708 mmHg 55%
    11:00 +26°C° 0.2 mm 2 m/S 708 mmHg 53%
    12:00 +27°C° 0.2 mm 3 m/S 708 mmHg 51%
    13:00 +28°C° 0.2 mm 3 m/S 708 mmHg 49%
    14:00 +26°C° 0.3 mm 4 m/S 708 mmHg 53%
    15:00 +25°C° 0.3 mm 4 m/S 707 mmHg 57%
    16:00 +23°C° 0.3 mm 5 m/S 707 mmHg 61%
    17:00 +21°C° 0.7 mm 5 m/S 707 mmHg 69%
    18:00 +19°C° 0.7 mm 4 m/S 708 mmHg 77%
    19:00 +17°C° 0.7 mm 4 m/S 708 mmHg 85%
    20:00 +17°C° 0.1 mm 4 m/S 709 mmHg 86%
    21:00 +16°C° 0.1 mm 3 m/S 709 mmHg 87%
    22:00 +16°C° 0.1 mm 3 m/S 709 mmHg 88%
    23:00 +16°C° 0 mm 3 m/S 709 mmHg 87%
    Mehr zeigen